| time (UTC) | temp F | wind direction | speed knots | gust knots | rain 1hr in | rain 24hr in | rain mn in | humidity % | barometer mb |
| 20260902194603 | 59 | 167 | 1.7 | 1.7 | 0.00 | 0.00 | 0.00 | 100 | |
| 20260902194103 | 59 | 190 | 1.7 | 1.7 | 0.00 | 0.00 | 0.00 | 100 | |
| 20260902193603 | 59 | 190 | 1.7 | 1.7 | 0.00 | 0.00 | 0.00 | 100 | |
| 20260902193103 | 59 | 190 | 1.7 | 1.7 | 0.00 | 0.00 | 0.00 | 100 | |
| 20260902192146 | 60 | 169 | 1.7 | 1.7 | 0.00 | 0.00 | 0.00 | 100 | |
| 20260902192102 | 60 | 169 | 1.7 | 1.7 | 0.00 | 0.00 | 0.00 | 100 | |
| 20260902191602 | 60 | 164 | 1.7 | 1.7 | 0.00 | 0.00 | 0.00 | 100 | |
| 20260902191102 | 59 | 190 | 1.7 | 1.7 | 0.00 | 0.00 | 0.00 | 100 | |
| 20260902190602 | 60 | 190 | 1.7 | 1.7 | 0.00 | 0.00 | 0.00 | 100 | |
| 20260902185601 | 60 | 188 | 1.7 | 1.7 | 0.00 | 0.00 | 0.00 | 100 | |
| 20260902185101 | 62 | 149 | 1.7 | 1.7 | 0.00 | 0.00 | 0.00 | 100 | |
| 20260902184601 | 62 | 149 | 1.7 | 1.7 | 0.00 | 0.00 | 0.00 | 100 | |
| 20260902184101 | 63 | 149 | 1.7 | 1.7 | 0.00 | 0.00 | 0.00 | 100 | |
| 20260902183601 | 63 | 149 | 1.7 | 1.7 | 0.00 | 0.00 | 0.00 | 100 | |
| 20260902183101 | 63 | 166 | 1.7 | 1.7 | 0.00 | 0.00 | 0.00 | 100 | |
| 20260902182557 | 63 | 179 | 1.7 | 1.7 | 0.00 | 0.00 | 0.00 | 100 | |
| 20260902182057 | 63 | 179 | 1.7 | 1.7 | 0.00 | 0.00 | 0.00 | 100 | |
| 20260902181557 | 64 | 179 | 1.7 | 1.7 | 0.00 | 0.00 | 0.00 | 100 | |
| 20260902181057 | 64 | 179 | 1.7 | 1.7 | 0.00 | 0.00 | 0.00 | 100 | |
| 20260902180556 | 63 | 189 | 1.7 | 2.6 | 0.00 | 0.00 | 0.00 | 100 | |
| 20260902180056 | 64 | 202 | 1.7 | 1.7 | 0.00 | 0.00 | 0.00 | 100 | |
| 20260902175556 | 63 | 202 | 1.7 | 1.7 | 0.00 | 0.00 | 0.00 | 100 | |
| 20260902175055 | 65 | 202 | 1.7 | 1.7 | 0.00 | 0.00 | 0.00 | 100 | |
| 20260902174555 | 65 | 202 | 1.7 | 1.7 | 0.00 | 0.00 | 0.00 | 100 | |
| 20260902174055 | 65 | 196 | 0.9 | 1.7 | 0.00 | 0.00 | 0.00 | 100 | |
| 20260902173554 | 68 | 138 | 0.9 | 0.9 | 0.00 | 0.00 | 0.00 | 100 | |
| 20260902173054 | 68 | 138 | 0.9 | 0.9 | 0.00 | 0.00 | 0.00 | 100 | |
| 20260902172554 | 68 | 179 | 1.7 | 1.7 | 0.00 | 0.00 | 0.00 | 100 | |
| 20260902172043 | 68 | 179 | 1.7 | 1.7 | 0.00 | 0.00 | 0.00 | 100 | |
| 20260902171543 | 69 | 179 | 1.7 | 1.7 | 0.00 | 0.00 | 0.00 | 100 | |
| 20260902171043 | 69 | 183 | 1.7 | 1.7 | 0.00 | 0.00 | 0.00 | 100 | |
| 20260902170543 | 69 | 185 | 1.7 | 1.7 | 0.00 | 0.00 | 0.00 | 100 | |
| 20260902165542 | 70 | 185 | 1.7 | 1.7 | 0.00 | 0.00 | 0.00 | 100 | |
| 20260902165042 | 70 | 185 | 1.7 | 1.7 | 0.00 | 0.00 | 0.00 | 100 | |
| 20260902164542 | 70 | 174 | 1.7 | 1.7 | 0.00 | 0.00 | 0.00 | 100 | |
| 20260902164042 | 70 | 158 | 1.7 | 1.7 | 0.00 | 0.00 | 0.00 | 100 | |
| 20260902163038 | 70 | 115 | 1.7 | 2.6 | 0.00 | 0.00 | 0.00 | 100 | |
| 20260902162538 | 71 | 111 | 2.6 | 3.5 | 0.00 | 0.00 | 0.00 | 100 | |
| 20260902162038 | 71 | 110 | 2.6 | 3.5 | 0.00 | 0.00 | 0.00 | 100 | |
| 20260902161538 | 71 | 115 | 2.6 | 2.6 | 0.00 | 0.00 | 0.00 | 100 | |
| 20260902161038 | 71 | 114 | 1.7 | 2.6 | 0.00 | 0.00 | 0.00 | 100 | |
| 20260902160537 | 71 | 111 | 2.6 | 4.3 | 0.00 | 0.00 | 0.00 | 100 | |
| 20260902155537 | 72 | 108 | 2.6 | 3.5 | 0.00 | 0.00 | 0.00 | 100 | |
| 20260902155037 | 72 | 108 | 1.7 | 2.6 | 0.00 | 0.00 | 0.00 | 100 | |
| 20260902154537 | 72 | 108 | 2.6 | 2.6 | 0.00 | 0.00 | 0.00 | 100 | |
| 20260902154037 | 73 | 108 | 1.7 | 2.6 | 0.00 | 0.00 | 0.00 | 100 | |
| 20260902153536 | 73 | 97 | 1.7 | 1.7 | 0.00 | 0.00 | 0.00 | 100 | |
| 20260902153036 | 73 | 97 | 1.7 | 2.6 | 0.00 | 0.00 | 0.00 | 100 | |
| 20260902152536 | 73 | 97 | 1.7 | 1.7 | 0.00 | 0.00 | 0.00 | 100 | |
| 20260902152036 | 74 | 103 | 1.7 | 1.7 | 0.00 | 0.00 | 0.00 | 100 | |
| 20260902151536 | 74 | 138 | 1.7 | 1.7 | 0.00 | 0.00 | 0.00 | 100 | |
| 20260902151035 | 74 | 149 | 1.7 | 5.2 | 0.00 | 0.00 | 0.00 | 100 | |
| 20260902150535 | 74 | 91 | 0.0 | 0.0 | 0.00 | 0.00 | 0.00 | 100 | |
| 20260902150035 | 75 | 73 | 0.0 | 0.0 | 0.00 | 0.00 | 0.00 | 100 | |
| 20260902145818 | 74 | 88 | 1.7 | 1.7 | 0.00 | 0.00 | 0.00 | 100 | |
| 20260902145318 | 74 | 190 | 1.7 | 1.7 | 0.00 | 0.00 | 0.00 | 100 | |
| 20260902144818 | 74 | 187 | 2.6 | 3.5 | 0.00 | 0.00 | 0.00 | 100 | |
| 20260902144318 | 75 | 168 | 1.7 | 3.5 | 0.00 | 0.00 | 0.00 | 100 | |
| 20260902143818 | 74 | 200 | 2.6 | 5.2 | 0.00 | 0.00 | 0.00 | 100 | |
| 20260902143317 | 74 | 199 | 3.5 | 5.2 | 0.00 | 0.00 | 0.00 | 100 | |
| 20260902142315 | 74 | 200 | 4.3 | 7.0 | 0.00 | 0.00 | 0.00 | 100 | |
| 20260902141811 | 74 | 189 | 6.1 | 20.9 | 0.00 | 0.00 | 0.00 | 100 | |
| 20260902141307 | 74 | 195 | 2.6 | 6.1 | 0.00 | 0.00 | 0.00 | 100 | |
| 20260902140256 | 73 | 185 | 3.5 | 4.3 | 0.00 | 0.00 | 0.00 | 100 | |
| 20260902135756 | 73 | 187 | 3.5 | 7.0 | 0.00 | 0.00 | 0.00 | 100 | |
| 20260902135256 | 73 | 184 | 3.5 | 5.2 | 0.00 | 0.00 | 0.00 | 100 | |
| 20260902134255 | 73 | 178 | 3.5 | 5.2 | 0.00 | 0.00 | 0.00 | 100 | |
| 20260902133754 | 73 | 191 | 1.7 | 3.5 | 0.00 | 0.00 | 0.00 | 100 | |
| 20260902133254 | 72 | 183 | 2.6 | 3.5 | 0.00 | 0.00 | 0.00 | 100 | |
| 20260902132754 | 73 | 185 | 2.6 | 4.3 | 0.00 | 0.00 | 0.00 | 100 | |
| 20260902132254 | 73 | 162 | 1.7 | 3.5 | 0.00 | 0.00 | 0.00 | 100 | |
| 20260902131754 | 72 | 196 | 3.5 | 5.2 | 0.00 | 0.00 | 0.00 | 100 | |
| 20260902131253 | 73 | 189 | 4.3 | 6.1 | 0.00 | 0.00 | 0.00 | 100 | |
| 20260902130752 | 74 | 171 | 2.6 | 4.3 | 0.00 | 0.00 | 0.00 | 100 | |
| 20260902130252 | 73 | 155 | 3.5 | 5.2 | 0.00 | 0.00 | 0.00 | 100 | |
| 20260902125752 | 73 | 153 | 2.6 | 5.2 | 0.00 | 0.00 | 0.00 | 100 | |
| 20260902125251 | 73 | 241 | 1.7 | 3.5 | 0.00 | 0.00 | 0.00 | 100 | |
| 20260902124751 | 73 | 283 | 1.7 | 1.7 | 0.00 | 0.00 | 0.00 | 100 | |
| 20260902123249 | 73 | 95 | 1.7 | 3.5 | 0.00 | 0.00 | 0.00 | 100 | |
| 20260902122749 | 73 | 98 | 1.7 | 3.5 | 0.00 | 0.00 | 0.00 | 100 | |
| 20260902122249 | 73 | 102 | 3.5 | 6.1 | 0.00 | 0.00 | 0.00 | 100 | |
| 20260902121749 | 73 | 99 | 4.3 | 5.2 | 0.00 | 0.00 | 0.00 | 100 | |
| 20260902121249 | 74 | 100 | 3.5 | 5.2 | 0.00 | 0.00 | 0.00 | 100 | |
| 20260902120749 | 74 | 156 | 1.7 | 1.7 | 0.00 | 0.00 | 0.00 | 100 | |
| 20260902120249 | 72 | 163 | 1.7 | 1.7 | 0.00 | 0.00 | 0.00 | 100 | |
| 20260902115748 | 72 | 178 | 1.7 | 2.6 | 0.00 | 0.00 | 0.00 | 100 | |
| 20260902114747 | 72 | 75 | 1.7 | 4.3 | 0.00 | 0.00 | 0.00 | 100 | |
| 20260902114247 | 72 | 0 | 1.7 | 1.7 | 0.00 | 0.00 | 0.00 | 100 | |
| 20260902113747 | 71 | 46 | 2.6 | 3.5 | 0.00 | 0.00 | 0.00 | 100 | |
| 20260902113246 | 71 | 93 | 3.5 | 5.2 | 0.00 | 0.00 | 0.00 | 100 | |
| 20260902112733 | 72 | 96 | 2.6 | 6.1 | 0.00 | 0.00 | 0.00 | 100 | |
| 20260902112233 | 72 | 98 | 3.5 | 5.2 | 0.00 | 0.00 | 0.00 | 100 | |
| 20260902111732 | 73 | 105 | 2.6 | 3.5 | 0.00 | 0.00 | 0.00 | 100 | |
| 20260902111232 | 74 | 121 | 2.6 | 4.3 | 0.00 | 0.00 | 0.00 | 100 | |
| 20260902110732 | 74 | 139 | 5.2 | 7.0 | 0.00 | 0.00 | 0.00 | 100 | |
| 20260902110232 | 73 | 121 | 4.3 | 7.0 | 0.00 | 0.00 | 0.00 | 100 | |
| 20260902105732 | 72 | 135 | 2.6 | 5.2 | 0.00 | 0.00 | 0.00 | 100 | |
| 20260902105232 | 71 | 144 | 4.3 | 6.1 | 0.00 | 0.00 | 0.00 | 100 | |
| 20260902104731 | 71 | 146 | 3.5 | 6.1 | 0.00 | 0.00 | 0.00 | 100 | |
| 20260902104231 | 71 | 146 | 5.2 | 7.0 | 0.00 | 0.00 | 0.00 | 100 | |
| 20260902103231 | 70 | 152 | 3.5 | 33.0 | 0.00 | 0.00 | 0.00 | 100 | |
| 20260902102729 | 70 | 101 | 1.7 | 2.6 | 0.00 | 0.00 | 0.00 | 100 | |
| 20260902102229 | 70 | 97 | 2.6 | 2.6 | 0.00 | 0.00 | 0.00 | 100 | |
| 20260902101728 | 70 | 97 | 3.5 | 3.5 | 0.00 | 0.00 | 0.00 | 100 | |
| 20260902101228 | 70 | 97 | 3.5 | 3.5 | 0.00 | 0.00 | 0.00 | 100 | |
| 20260902100728 | 69 | 97 | 2.6 | 3.5 | 0.00 | 0.00 | 0.00 | 100 | |
| 20260902100228 | 69 | 97 | 3.5 | 3.5 | 0.00 | 0.00 | 0.00 | 100 | |
| 20260902095728 | 68 | 97 | 3.5 | 4.3 | 0.00 | 0.00 | 0.00 | 100 | |
| 20260902095227 | 68 | 97 | 4.3 | 5.2 | 0.00 | 0.00 | 0.00 | 100 | |
| 20260902094727 | 69 | 96 | 3.5 | 3.5 | 0.00 | 0.00 | 0.00 | 100 | |
| 20260902094227 | 69 | 98 | 2.6 | 2.6 | 0.00 | 0.00 | 0.00 | 100 | |
| 20260902093727 | 68 | 91 | 1.7 | 2.6 | 0.00 | 0.00 | 0.00 | 100 | |
| 20260902093227 | 67 | 96 | 1.7 | 2.6 | 0.00 | 0.00 | 0.00 | 100 | |
| 20260902092727 | 68 | 97 | 1.7 | 1.7 | 0.00 | 0.00 | 0.00 | 100 | |
| 20260902092226 | 67 | 97 | 1.7 | 1.7 | 0.00 | 0.00 | 0.00 | 100 | |
| 20260902091226 | 66 | 98 | 1.7 | 2.6 | 0.00 | 0.00 | 0.00 | 100 | |
| 20260902090726 | 66 | 97 | 1.7 | 2.6 | 0.00 | 0.00 | 0.00 | 100 | |
| 20260902090226 | 65 | 97 | 2.6 | 2.6 | 0.00 | 0.00 | 0.00 | 100 | |
| 20260902085215 | 64 | 100 | 2.6 | 3.5 | 0.00 | 0.00 | 0.00 | 100 | |
| 20260902084715 | 64 | 100 | 2.6 | 3.5 | 0.00 | 0.00 | 0.00 | 100 | |
| 20260902084215 | 64 | 97 | 1.7 | 2.6 | 0.00 | 0.00 | 0.00 | 100 | |
| 20260902083715 | 64 | 97 | 1.7 | 2.6 | 0.00 | 0.00 | 0.00 | 100 | |
| 20260902082714 | 63 | 97 | 1.7 | 2.6 | 0.00 | 0.00 | 0.00 | 100 | |
| 20260902082214 | 63 | 97 | 1.7 | 2.6 | 0.00 | 0.00 | 0.00 | 100 | |
| 20260902081714 | 62 | 97 | 1.7 | 2.6 | 0.00 | 0.00 | 0.00 | 100 | |
| 20260902081214 | 62 | 91 | 1.7 | 1.7 | 0.00 | 0.00 | 0.00 | 100 | |
| 20260902080714 | 62 | 91 | 1.7 | 1.7 | 0.00 | 0.00 | 0.00 | 100 | |
| 20260902080214 | 61 | 91 | 1.7 | 2.6 | 0.00 | 0.00 | 0.00 | 100 | |
| 20260902075713 | 61 | 97 | 1.7 | 1.7 | 0.00 | 0.00 | 0.00 | 100 | |
| 20260902075213 | 61 | 97 | 1.7 | 1.7 | 0.00 | 0.00 | 0.00 | 100 | |
| 20260902074713 | 61 | 87 | 1.7 | 1.7 | 0.00 | 0.00 | 0.00 | 100 | |
| 20260902074213 | 60 | 94 | 1.7 | 1.7 | 0.00 | 0.00 | 0.00 | 100 | |
| 20260902073713 | 60 | 97 | 1.7 | 1.7 | 0.00 | 0.00 | 0.00 | 100 | |
| 20260902073212 | 60 | 97 | 1.7 | 1.7 | 0.00 | 0.00 | 0.00 | 100 | |
| 20260902072712 | 59 | 97 | 1.7 | 1.7 | 0.00 | 0.00 | 0.00 | 100 | |
| 20260902071712 | 59 | 97 | 1.7 | 1.7 | 0.00 | 0.00 | 0.00 | 100 | |
| 20260902070712 | 57 | 97 | 1.7 | 1.7 | 0.00 | 0.00 | 0.00 | 100 | |
| 20260902070211 | 57 | 99 | 1.7 | 2.6 | 0.00 | 0.00 | 0.00 | 100 | |
| 20260902065711 | 57 | 99 | 1.7 | 3.5 | 0.00 | 0.00 | 0.00 | 100 | |
| 20260902065211 | 57 | 102 | 0.9 | 0.9 | 0.00 | 0.00 | 0.00 | 100 | |
| 20260902064711 | 57 | 102 | 0.9 | 0.9 | 0.00 | 0.00 | 0.00 | 100 | |
| 20260902064211 | 57 | 102 | 0.9 | 0.9 | 0.00 | 0.00 | 0.00 | 100 | |
| 20260902063710 | 56 | 109 | 0.9 | 0.9 | 0.00 | 0.00 | 0.00 | 100 | |
| 20260902063210 | 56 | 137 | 0.9 | 0.9 | 0.00 | 0.00 | 0.00 | 100 | |
| 20260902062710 | 56 | 149 | 0.9 | 0.9 | 0.00 | 0.00 | 0.00 | 100 | |
| 20260902062210 | 55 | 147 | 0.9 | 0.9 | 0.00 | 0.00 | 0.00 | 100 | |
| 20260902061657 | 55 | 149 | 0.9 | 0.9 | 0.00 | 0.00 | 0.00 | 100 | |
| 20260902061157 | 55 | 149 | 0.9 | 1.7 | 0.00 | 0.00 | 0.00 | 100 | |
| 20260902060733 | 55 | 149 | 0.9 | 0.9 | 0.00 | 0.00 | 0.00 | 100 | |
| 20260902060657 | 55 | 149 | 0.9 | 0.9 | 0.00 | 0.00 | 0.00 | 100 | |
| 20260902055656 | 54 | 219 | 0.9 | 0.9 | 0.00 | 0.00 | 0.00 | 100 | |
| 20260902055156 | 55 | 219 | 0.9 | 0.9 | 0.00 | 0.00 | 0.00 | 100 | |
| 20260902054656 | 54 | 219 | 0.9 | 0.9 | 0.00 | 0.00 | 0.00 | 100 | |
| 20260902054156 | 54 | 223 | 0.9 | 0.9 | 0.00 | 0.00 | 0.00 | 100 | |
| 20260902053655 | 52 | 219 | 0.9 | 0.9 | 0.00 | 0.00 | 0.00 | 100 | |
| 20260902052655 | 51 | 219 | 0.9 | 0.9 | 0.00 | 0.00 | 0.00 | 100 | |
| 20260902052155 | 50 | 219 | 0.9 | 0.9 | 0.00 | 0.00 | 0.00 | 100 | |
| 20260902051655 | 49 | 219 | 1.7 | 1.7 | 0.00 | 0.00 | 0.00 | 100 | |
| 20260902051155 | 49 | 219 | 1.7 | 1.7 | 0.00 | 0.00 | 0.00 | 100 | |
| 20260902050655 | 48 | 219 | 1.7 | 1.7 | 0.00 | 0.00 | 0.00 | 100 | |
| 20260902050154 | 48 | 219 | 0.9 | 1.7 | 0.00 | 0.00 | 0.00 | 100 | |
| 20260902045654 | 47 | 219 | 0.9 | 0.9 | 0.00 | 0.00 | 0.00 | 100 | |
| 20260902045154 | 47 | 219 | 0.9 | 0.9 | 0.00 | 0.00 | 0.00 | 100 | |
| 20260902044154 | 47 | 219 | 0.9 | 0.9 | 0.00 | 0.00 | 0.00 | 100 | |
| 20260902043653 | 47 | 219 | 0.9 | 0.9 | 0.00 | 0.00 | 0.00 | 100 | |
| 20260902043153 | 46 | 219 | 0.9 | 0.9 | 0.00 | 0.00 | 0.00 | 100 | |
| 20260902042653 | 46 | 219 | 0.9 | 0.9 | 0.00 | 0.00 | 0.00 | 100 | |
| 20260902042153 | 47 | 219 | 0.9 | 0.9 | 0.00 | 0.00 | 0.00 | 100 | |
| 20260902041652 | 46 | 219 | 0.9 | 0.9 | 0.00 | 0.00 | 0.00 | 100 | |
| 20260902041152 | 46 | 219 | 0.9 | 0.9 | 0.00 | 0.00 | 0.00 | 100 | |
| 20260902040652 | 47 | 219 | 0.9 | 0.9 | 0.00 | 0.00 | 0.00 | 100 | |
| 20260902040152 | 48 | 219 | 0.9 | 0.9 | 0.00 | 0.00 | 0.00 | 100 | |
| 20260902035652 | 48 | 219 | 0.9 | 0.9 | 0.00 | 0.00 | 0.00 | 100 | |
| 20260902035152 | 46 | 223 | 1.7 | 1.7 | 0.00 | 0.00 | 0.00 | 100 | |
| 20260902034651 | 46 | 221 | 1.7 | 1.7 | 0.00 | 0.00 | 0.00 | 100 | |
| 20260902034141 | 46 | 219 | 1.7 | 1.7 | 0.00 | 0.00 | 0.00 | 100 | |
| 20260902033641 | 47 | 219 | 1.7 | 1.7 | 0.00 | 0.00 | 0.00 | 100 | |
| 20260902033141 | 47 | 219 | 1.7 | 1.7 | 0.00 | 0.00 | 0.00 | 100 | |
| 20260902032640 | 47 | 219 | 1.7 | 1.7 | 0.00 | 0.00 | 0.00 | 100 | |
| 20260902032141 | 48 | 219 | 1.7 | 1.7 | 0.00 | 0.00 | 0.00 | 100 | |
| 20260902031640 | 46 | 219 | 1.7 | 1.7 | 0.00 | 0.00 | 0.00 | 100 | |
| 20260902031140 | 46 | 219 | 1.7 | 2.6 | 0.00 | 0.00 | 0.00 | 100 | |
| 20260902030640 | 46 | 219 | 1.7 | 1.7 | 0.00 | 0.00 | 0.00 | 100 | |
| 20260902030140 | 46 | 219 | 0.9 | 1.7 | 0.00 | 0.00 | 0.00 | 100 | |
| 20260902025639 | 46 | 219 | 0.9 | 0.9 | 0.00 | 0.00 | 0.00 | 100 | |
| 20260902025139 | 46 | 219 | 1.7 | 1.7 | 0.00 | 0.00 | 0.00 | 100 | |
| 20260902024639 | 47 | 219 | 1.7 | 1.7 | 0.00 | 0.00 | 0.00 | 100 | |
| 20260902024139 | 47 | 219 | 1.7 | 1.7 | 0.00 | 0.00 | 0.00 | 100 | |
| 20260902023639 | 47 | 219 | 1.7 | 1.7 | 0.00 | 0.00 | 0.00 | 100 | |
| 20260902023138 | 47 | 219 | 1.7 | 1.7 | 0.00 | 0.00 | 0.00 | 100 | |
| 20260902022638 | 48 | 222 | 1.7 | 2.6 | 0.00 | 0.00 | 0.00 | 100 | |
| 20260902022138 | 48 | 219 | 0.9 | 0.9 | 0.00 | 0.00 | 0.00 | 100 | |
| 20260902021638 | 47 | 219 | 1.7 | 1.7 | 0.00 | 0.00 | 0.00 | 100 | |
| 20260902021138 | 47 | 208 | 1.7 | 1.7 | 0.00 | 0.00 | 0.00 | 100 | |
| 20260902020638 | 47 | 208 | 1.7 | 1.7 | 0.00 | 0.00 | 0.00 | 100 | |
| 20260902020138 | 47 | 208 | 1.7 | 1.7 | 0.00 | 0.00 | 0.00 | 100 | |
| 20260902015637 | 47 | 208 | 1.7 | 2.6 | 0.00 | 0.00 | 0.00 | 100 | |
| 20260902014136 | 48 | 208 | 0.9 | 1.7 | 0.00 | 0.00 | 0.00 | 100 | |
| 20260902013636 | 48 | 208 | 1.7 | 1.7 | 0.00 | 0.00 | 0.00 | 100 | |
| 20260902013136 | 48 | 207 | 1.7 | 2.6 | 0.00 | 0.00 | 0.00 | 100 | |
| 20260902012636 | 48 | 196 | 0.9 | 0.9 | 0.00 | 0.00 | 0.00 | 100 | |
| 20260902012225 | 48 | 196 | 0.9 | 0.9 | 0.00 | 0.00 | 0.00 | 100 | |
| 20260902012135 | 48 | 196 | 0.9 | 0.9 | 0.00 | 0.00 | 0.00 | 100 | |
| 20260902011636 | 49 | 196 | 0.9 | 0.9 | 0.00 | 0.00 | 0.00 | 100 | |
| 20260902011135 | 49 | 196 | 1.7 | 1.7 | 0.00 | 0.00 | 0.00 | 100 | |
| 20260902010622 | 50 | 196 | 1.7 | 1.7 | 0.00 | 0.00 | 0.00 | 100 | |
| 20260902010122 | 49 | 196 | 1.7 | 1.7 | 0.00 | 0.00 | 0.00 | 100 | |
| 20260902005622 | 49 | 196 | 1.7 | 1.7 | 0.00 | 0.00 | 0.00 | 100 | |
| 20260902005122 | 49 | 196 | 1.7 | 1.7 | 0.00 | 0.00 | 0.00 | 100 | |
| 20260902004621 | 49 | 196 | 2.6 | 2.6 | 0.00 | 0.00 | 0.00 | 100 | |
| 20260902004121 | 48 | 196 | 1.7 | 2.6 | 0.00 | 0.00 | 0.00 | 100 | |
| 20260902003621 | 48 | 196 | 1.7 | 1.7 | 0.00 | 0.00 | 0.00 | 100 | |
| 20260902003121 | 48 | 196 | 2.6 | 3.5 | 0.00 | 0.00 | 0.00 | 100 | |
| 20260902002621 | 48 | 196 | 1.7 | 1.7 | 0.00 | 0.00 | 0.00 | 100 | |
| 20260902001620 | 49 | 179 | 1.7 | 1.7 | 0.00 | 0.00 | 0.00 | 100 | |
| 20260902001120 | 49 | 179 | 1.7 | 1.7 | 0.00 | 0.00 | 0.00 | 100 | |
| 20260902000620 | 49 | 179 | 1.7 | 1.7 | 0.00 | 0.00 | 0.00 | 100 | |
| 20260902000120 | 50 | 179 | 1.7 | 2.6 | 0.00 | 0.00 | 0.00 | 100 | |
| 20260901235619 | 50 | 179 | 1.7 | 1.7 | 0.00 | 0.00 | 0.00 | 100 | |
| 20260901235119 | 50 | 179 | 1.7 | 1.7 | 0.00 | 0.00 | 0.00 | 100 | |
| 20260901234619 | 50 | 179 | 1.7 | 1.7 | 0.00 | 0.00 | 0.00 | 100 | |
| 20260901234119 | 50 | 179 | 1.7 | 1.7 | 0.00 | 0.00 | 0.00 | 100 | |
| 20260901233618 | 51 | 179 | 0.9 | 0.9 | 0.00 | 0.00 | 0.00 | 100 | |
| 20260901233118 | 51 | 179 | 0.9 | 0.9 | 0.00 | 0.00 | 0.00 | 100 | |
| 20260901232618 | 51 | 179 | 0.9 | 0.9 | 0.00 | 0.00 | 0.00 | 100 | |
| 20260901232118 | 51 | 179 | 0.9 | 0.9 | 0.00 | 0.00 | 0.00 | 100 | |
| 20260901231618 | 51 | 179 | 0.9 | 0.9 | 0.00 | 0.00 | 0.00 | 100 | |
| 20260901231118 | 51 | 179 | 0.9 | 0.9 | 0.00 | 0.00 | 0.00 | 100 | |
| 20260901230617 | 51 | 179 | 0.9 | 0.9 | 0.00 | 0.00 | 0.00 | 100 | |
| 20260901230212 | 51 | 179 | 0.9 | 0.9 | 0.00 | 0.00 | 0.00 | 100 | |
| 20260901230117 | 51 | 179 | 0.9 | 0.9 | 0.00 | 0.00 | 0.00 | 100 | |
| 20260901225617 | 52 | 179 | 0.9 | 0.9 | 0.00 | 0.00 | 0.00 | 100 | |
| 20260901225117 | 53 | 179 | 0.9 | 0.9 | 0.00 | 0.00 | 0.00 | 100 | |
| 20260901224617 | 53 | 179 | 0.9 | 0.9 | 0.00 | 0.00 | 0.00 | 100 | |
| 20260901224116 | 53 | 146 | 1.7 | 1.7 | 0.00 | 0.00 | 0.00 | 100 | |
| 20260901223616 | 54 | 144 | 1.7 | 1.7 | 0.00 | 0.00 | 0.00 | 100 | |
| 20260901222605 | 54 | 135 | 1.7 | 1.7 | 0.00 | 0.00 | 0.00 | 100 | |
| 20260901222105 | 54 | 149 | 1.7 | 3.5 | 0.00 | 0.00 | 0.00 | 100 | |
| 20260901221105 | 52 | 167 | 1.7 | 1.7 | 0.00 | 0.00 | 0.00 | 100 | |
| 20260901220605 | 53 | 157 | 1.7 | 2.6 | 0.00 | 0.00 | 0.00 | 100 | |
| 20260901220139 | 53 | 186 | 1.7 | 1.7 | 0.00 | 0.00 | 0.00 | 100 | |
| 20260901220105 | 53 | 186 | 1.7 | 1.7 | 0.00 | 0.00 | 0.00 | 100 | |
| 20260901215604 | 53 | 187 | 1.7 | 1.7 | 0.00 | 0.00 | 0.00 | 100 | |
| 20260901215104 | 53 | 189 | 1.7 | 3.5 | 0.00 | 0.00 | 0.00 | 100 | |
| 20260901214604 | 53 | 196 | 1.7 | 2.6 | 0.00 | 0.00 | 0.00 | 100 | |
| 20260901214104 | 53 | 200 | 1.7 | 3.5 | 0.00 | 0.00 | 0.00 | 100 | |
| 20260901213603 | 53 | 202 | 1.7 | 2.6 | 0.00 | 0.00 | 0.00 | 100 | |
| 20260901213103 | 53 | 202 | 1.7 | 2.6 | 0.00 | 0.00 | 0.00 | 100 | |
| 20260901212603 | 54 | 202 | 1.7 | 1.7 | 0.00 | 0.00 | 0.00 | 100 | |
| 20260901212103 | 55 | 202 | 1.7 | 1.7 | 0.00 | 0.00 | 0.00 | 100 | |
| 20260901211103 | 55 | 202 | 1.7 | 1.7 | 0.00 | 0.00 | 0.00 | 100 | |
| 20260901210602 | 55 | 202 | 1.7 | 1.7 | 0.00 | 0.00 | 0.00 | 100 | |
| 20260901205602 | 55 | 202 | 1.7 | 1.7 | 0.00 | 0.00 | 0.00 | 100 | |
| 20260901205102 | 55 | 202 | 1.7 | 1.7 | 0.00 | 0.00 | 0.00 | 100 | |
| 20260901204601 | 56 | 202 | 1.7 | 1.7 | 0.00 | 0.00 | 0.00 | 100 | |
| 20260901204101 | 56 | 202 | 1.7 | 1.7 | 0.00 | 0.00 | 0.00 | 100 | |
| 20260901203100 | 56 | 202 | 1.7 | 1.7 | 0.00 | 0.00 | 0.00 | 100 | |
| 20260901202600 | 55 | 202 | 1.7 | 1.7 | 0.00 | 0.00 | 0.00 | 100 | |
| 20260901202100 | 56 | 202 | 1.7 | 1.7 | 0.00 | 0.00 | 0.00 | 100 | |
| 20260901201600 | 56 | 202 | 1.7 | 1.7 | 0.00 | 0.00 | 0.00 | 100 | |
| 20260901201100 | 57 | 202 | 1.7 | 1.7 | 0.00 | 0.00 | 0.00 | 100 | |
| 20260901200559 | 57 | 202 | 1.7 | 1.7 | 0.00 | 0.00 | 0.00 | 100 | |
| 20260901200059 | 57 | 202 | 1.7 | 1.7 | 0.00 | 0.00 | 0.00 | 100 | |
| 20260901195546 | 57 | 202 | 1.7 | 1.7 | 0.00 | 0.00 | 0.00 | 100 | |
| 20260901195046 | 58 | 202 | 1.7 | 1.7 | 0.00 | 0.00 | 0.00 | 100 |